Location: Unspecified
(0.0000°N, 0.0000°E)
Time: 09:26:48
(UTC+02:00)

SJ-6B - Visible Passes

Search period start: 06 May 2015 00:00
Search period end: 16 May 2015 00:00
Orbit: 516 x 590 km, 97.8° (Epoch: 04 May)

Date Brightness Start Highest point End Pass type
(mag) Time Alt. Az. Time Alt. Az. Time Alt. Az.
06 May 5.8 07:25:32 10° ENE 07:27:24 14° E 07:29:28 10° SE visible
06 May 5.6 20:57:13 10° SSW 21:00:20 20° W 21:03:19 10° NW visible
07 May 6.0 07:22:41 10° ENE 07:24:05 12° E 07:25:44 10° SE visible
07 May 5.5 20:53:44 10° SSW 20:57:02 23° W 21:00:14 10° NW visible
08 May 6.2 07:20:06 10° E 07:20:47 11° E 07:21:44 10° ESE visible
08 May 5.3 20:50:17 10° SSW 20:53:44 25° W 20:57:08 10° NW visible
09 May 5.1 20:46:51 10° SSW 20:50:27 28° W 20:54:00 10° NW visible
10 May 4.9 20:43:26 10° SSW 20:47:09 32° W 20:50:50 10° NW visible
11 May 4.6 20:40:02 10° SSW 20:43:52 35° W 20:47:39 10° NW visible
12 May 4.4 20:36:39 10° S 20:40:34 40° W 20:44:27 10° NNW visible
13 May 4.1 20:33:17 10° S 20:37:16 45° W 20:41:15 10° NNW visible
14 May 3.9 20:29:55 10° S 20:33:58 51° W 20:38:01 10° NNW visible
15 May 3.6 20:26:34 10° S 20:30:40 58° W 20:34:46 10° NNW visible
